Вернуться в каталог

ATLAS CENTAUR R/B

АктивенHEO
NORAD 12497·ROCKET BODY·🇺🇸 United States

Запущен May 23, 1981 с Cape Canaveral Space Force Station

Loading…

Ближайшие Пролёты (ближайшие 24 часа)

TLE

СвежийSource: Space-Track

Эпоха: Sep 14, 2026, 11:01 UTC

1 12497U 81050B   26257.45928646  .00009155  00000-0  73169-3 0  9992
2 12497  23.9408 270.7218 3240945 204.5942 135.7617  8.82306983184865

Отслеживайте ATLAS CENTAUR R/B в реальном времени с AllMySat

Download on the App Store